Vertical_Velocity
0 -0 -1 -0 1 -3 1 2 -4 -3 5 1 -0 -2 -6 -1 8 17 -5 3 16 3 -17 8 -4 3 -2 4 3 -8 -1 3 1 3 2 -3 1 -5 3 -3 0 7 4 -0 2 3 -11 -3 -11 -6 -1 -16 -3 -2
2 3 -1 2 2 0 2 -1 -3 -1 -3 1 -5 -2 3 5 2 12 -8 -0 -1 9 -10 10 -19 18 -2 -6 19 3 -7 0 -2 1 -1 -0 -0 1 2 -7 -0 3 -9 -4 5 -16 -12 -19 5 -2 12 0 -5 -2
-3 -1 1 -1 1 -3 -2 -2 -0 -2 -5 3 -6 7 6 1 2 8 -8 1 4 1 -19 13 -17 -4 5 8 15 13 -6 6 -3 -6 -1 -3 4 4 1 -8 4 -4 0 5 22 -34 -7 -8 -20 -6 3 -0 -7 5
-1 1 -4 -5 2 -3 -0 -4 -0 0 -3 -2 -5 4 8 -2 -3 4 -4 8 9 4 10 -38 -3 -16 -4 4 8 10 -14 19 11 17 4 1 4 4 -5 -6 11 -10 10 -4 -14 -11 -4 -9 -4 -7 -12 3 0 4
-3 -1 -2 -0 2 3 6 2 -0 1 -3 -2 -1 2 4 0 -1 5 -11 5 15 10 1 -12 -19 2 1 5 2 11 7 9 5 8 4 -4 0 12 -4 9 -1 -3 -11 6 -19 -14 12 -15 -12 5 2 -6 1 3
-2 -2 -2 -0 4 -2 -3 -3 1 -0 -4 -6 -1 2 -1 1 1 -2 -21 -2 -1 0 3 -1 1 -33 -8 9 2 7 4 5 4 -3 -5 -2 -12 17 4 -1 -30 -2 1 6 -16 2 4 -10 3 -9 8 -4 -4 3
-1 -0 1 1 6 1 -4 -4 -1 -1 -3 -2 2 -0 -4 3 8 12 -13 11 10 6 15 -2 -3 -4 -5 -0 -3 -5 5 -8 8 -3 2 4 3 9 3 2 -20 3 -3 -3 -2 7 -11 0 -13 -3 9 -3 -2 -3
3 0 1 1 -2 -6 -4 1 -2 -3 -0 -2 -3 -3 -3 -0 -0 -6 12 2 -0 -0 5 1 -8 -5 -4 -7 -4 3 2 5 1 -6 2 3 4 2 3 2 -3 -2 -4 -1 1 3 3 -4 -2 -7 5 3 -0 -3
0 2 -2 -1 2 0 -4 -2 -0 0 -1 -2 -4 -6 -10 -3 -0 0 3 6 14 10 0 3 0 -3 4 -5 -4 -6 4 0 4 0 -1 4 0 2 7 3 -1 1 6 -5 -2 -1 -2 -0 -2 -2 5 1 5 -1
-1 -6 -1 1 -1 -3 -2 2 -1 -3 -2 -3 -10 -6 -2 -3 1 -1 -5 0 -0 7 9 1 1 -2 2 0 -4 2 3 -1 -0 -7 2 2 2 8 6 6 4 0 -1 1 1 -15 -3 -7 3 -3 -0 -0 5 -0
-0 -4 -3 3 -2 1 -1 2 1 -2 -3 -7 -3 -4 -2 3 -1 3 -2 -3 -0 -2 1 1 4 -0 -4 0 -2 2 -2 -2 2 -4 3 -0 -0 0 -3 -4 0 -0 2 1 5 1 -1 1 -3 -1 -3 -1 1 2
-2 -3 0 2 -2 -0 -3 -1 -2 2 6 0 4 4 -1 1 -1 -3 -2 -4 -1 -4 -2 -2 -2 -1 -7 3 2 -5 -0 1 -2 1 -0 -0 0 -3 -1 -5 -6 1 4 -0 8 3 -4 0 -1 -3 -0 -3 1 3
-1 -1 2 -1 -3 -2 -1 -1 3 8 0 -3 2 0 1 -1 -7 -1 -2 -6 -1 -1 -0 -1 -8 -1 -1 3 -0 2 3 -3 -2 -4 2 2 -0 -5 1 1 -6 0 -1 -1 -3 8 5 1 1 -2 -4 10 5 0
0 2 -1 -1 0 2 -1 -0 -1 1 -1 -2 1 -3 -2 -4 -2 -3 -2 -2 -0 2 3 0 -3 1 2 0 -0 4 -6 -2 -3 -3 -0 -1 1 -1 -1 2 3 -4 1 5 9 10 1 -0 4 5 8 10 6 -0
-1 -1 -2 -0 -0 -0 -3 -1 -2 3 -0 1 1 -4 -1 -3 -1 1 1 2 4 3 -1 -2 -0 3 -1 2 1 -0 -5 -0 2 3 0 -0 -2 3 -1 -0 3 3 3 3 6 2 11 20 11 7 7 6 5 1
-1 -6 2 -2 -2 5 -1 -3 -1 -2 2 1 1 -0 1 1 -4 0 1 -2 -3 0 1 3 -0 1 -1 0 0 2 -2 2 2 0 3 -3 -1 2 0 3 6 7 8 8 7 9 7 -2 3 15 10 2 4 3
-2 -1 -3 -2 4 1 -1 -0 -3 2 0 0 -2 -0 1 3 3 0 2 4 -0 1 -1 1 1 -2 -1 -1 -1 0 2 1 1 -0 2 2 2 -1 2 3 2 0 2 2 7 2 7 9 3 -1 -2 9 4 4
-1 -2 -1 3 -1 -4 -1 -1 -1 1 -1 0 -2 0 4 2 -0 -1 -0 0 -0 1 4 2 2 -2 1 0 0 1 -0 -2 6 4 1 1 3 4 3 2 1 2 0 3 2 6 -3 -9 -6 4 4 5 -2 1
-1 -2 1 -2 -1 -4 1 1 -0 -0 -1 -1 0 1 4 1 -1 -0 -0 1 3 4 2 -1 -2 0 1 1 1 -2 -0 4 3 2 -0 3 3 -0 2 2 3 1 -1 -4 -1 -6 1 -2 2 3 0 2 -5 -0
-1 -4 2 -3 -2 -1 0 -0 0 -0 -2 0 -0 0 2 2 -0 -2 -2 0 -1 -2 -4 -1 1 0 0 -1 3 1 3 5 3 -4 -1 -1 -0 0 -1 -0 1 3 3 1 -4 2 -2 -0 -3 -3 4 3 -4 -2
-0 1 -1 -3 -3 -1 1 0 0 0 0 -0 1 0 1 1 -1 -3 -1 -0 -3 -1 -0 -0 -0 2 3 2 1 2 3 4 -2 -2 1 -1 1 1 2 1 2 -1 -3 -1 1 2 -3 -7 1 4 -2 -3 2 2
-1 -1 -5 -2 -0 1 1 1 1 1 0 0 1 1 -0 -1 -1 -1 -1 -4 -1 -1 -0 -1 1 1 2 1 2 2 1 1 1 1 -0 -0 -1 -3 -3 -1 -2 -3 -1 -0 0 -0 2 4 6 -1 -3 3 8 3
-1 0 -0 0 1 1 -1 0 -0 0 -1 -1 1 -1 -0 -0 -0 0 -2 -0 -1 -0 -0 -0 0 2 2 2 3 2 1 -0 -1 0 2 1 3 3 2 2 2 1 1 0 1 -0 -3 0 0 3 4 2 1 1
1 -1 1 1 1 -1 0 -0 1 0 0 -1 -1 -1 -1 -0 1 -0 -0 1 -0 -0 0 0 0 1 2 3 -0 -1 -2 -0 0 1 1 -0 -0 -0 0 1 1 1 0 1 0 -0 -0 -1 1 -0 -1 -0 -2 -4
0 -3 -0 -1 0 -0 -1 -2 -1 -1 -0 -0 -1 -1 -1 0 -1 -0 -0 0 0 0 0 0 0 -0 0 -0 -0 0 1 0 -2 -0 0 1 3 5 3 -0 0 0 1 1 -1 0 1 2 0 -0 1 -0 0 -1
-3 -0 -0 -1 -1 -1 -1 -1 -0 -1 -0 -0 -2 0 0 -1 -1 -2 -0 0 -1 -0 1 0 -1 -0 0 0 1 1 -0 -1 -1 -0 1 0 -0 -1 -1 -1 -2 1 1 0 1 0 -0 -0 0 1 2 2 1 2
-1 -3 -0 0 0 0 1 0 1 -0 -0 -1 -1 -1 -2 -1 -2 -2 -1 -0 -0 -1 -1 1 1 1 1 1 0 0 -1 -1 -1 0 0 0 -0 -1 -1 -1 -3 -1 -3 -0 1 -1 0 1 1 -0 -1 -0 -0 -1
-0 -0 -2 0 0 0 -1 0 -0 -1 -1 0 1 -2 -3 -4 -4 -0 -0 -1 -1 -0 -1 -0 -0 -0 -0 0 0 0 2 1 1 1 0 0 -1 -0 2 2 1 1 2 1 1 1 1 1 1 0 0 1 1 1
-0 0 0 -0 -0 0 -0 -1 -2 -0 -0 -0 -1 -1 -1 -1 -0 -1 -0 0 0 -0 -1 -1 -0 0 -0 -0 -1 -1 -1 0 4 2 1 1 2 2 2 1 1 0 1 1 0 -1 -1 -0 -1 -0 1 0 -0 -1
-0 0 -0 -0 -0 -1 -0 -0 0 0 -0 -0 -0 -1 -1 -1 -1 -0 0 0 1 0 -0 -0 -0 0 0 1 2 2 2 1 -0 -0 -1 -2 -2 -0 0 -0 1 2 1 1 1 0 1 1 0 0 0 0 1 1
0 1 -0 0 -0 0 0 0 -0 -1 -1 -0 0 0 -0 -1 -1 -1 -1 -0 -0 -0 0 0 0 0 0 -0 -1 -1 -1 -1 -1 -1 -1 -0 -0 -0 -1 -1 -0 0 0 1 1 0 -0 -0 0 -0 0 0 -0 -0
1 0 -0 -0 -0 0 0 -1 -0 0 0 0 0 0 1 1 -0 -0 -1 -0 -0 -0 -0 -1 -1 -1 -2 -1 -1 -1 -0 -0 0 0 1 2 3 2 1 1 1 -0 -1 -0 -0 -0 1 1 0 -0 -1 -1 -1 -0
0 0 0 -0 0 0 0 1 0 0 0 0 0 0 -0 -0 -0 0 0 1 0 -0 -0 -1 -1 -1 -0 0 1 1 1 0 -0 -1 -1 -1 -2 -1 -1 -1 0 -0 -1 -0 0 0 0 -0 -1 -1 -1 -0 0 0
Height
1572 1571 1570 1569 1569 1568 1568 1566 1564 1563 1561 1558 1556 1552 1553 1551 1548 1547 1547 1546 1544 1537 1531 1530 1531 1529 1529 1528 1525 1521 1521 1517 1517 1516 1512 1506 1507 1495 1495 1488 1494 1491 1485 1483 1477 1469 1456 1435 1434 1444 1436 1431 1431 1429
1570 1569 1567 1567 1565 1564 1563 1561 1561 1560 1560 1555 1554 1551 1548 1547 1545 1541 1541 1541 1538 1534 1527 1526 1522 1520 1519 1516 1519 1516 1515 1513 1510 1509 1509 1507 1497 1495 1491 1481 1483 1479 1476 1471 1469 1453 1433 1431 1434 1427 1433 1430 1426 1423
1569 1568 1567 1566 1564 1562 1561 1559 1556 1555 1557 1554 1551 1549 1543 1542 1541 1539 1536 1534 1532 1526 1518 1514 1509 1510 1508 1509 1510 1509 1504 1503 1503 1502 1498 1493 1490 1486 1482 1469 1469 1463 1466 1464 1462 1409 1436 1436 1429 1425 1423 1423 1418 1415
1564 1564 1562 1563 1562 1560 1557 1555 1554 1551 1550 1550 1549 1546 1541 1537 1536 1534 1531 1529 1528 1525 1516 1504 1504 1500 1500 1498 1497 1497 1494 1494 1494 1495 1489 1483 1481 1477 1469 1461 1459 1454 1455 1447 1432 1424 1425 1416 1419 1418 1415 1415 1412 1407
1563 1562 1561 1560 1558 1557 1555 1552 1549 1547 1546 1545 1544 1541 1536 1532 1531 1528 1524 1519 1518 1522 1513 1502 1498 1487 1488 1486 1486 1486 1486 1485 1484 1483 1478 1470 1467 1469 1457 1457 1438 1441 1438 1438 1417 1417 1416 1408 1406 1407 1407 1403 1402 1402
1561 1559 1559 1558 1553 1551 1551 1551 1547 1543 1540 1540 1539 1535 1531 1528 1526 1522 1516 1513 1511 1511 1511 1502 1489 1483 1479 1479 1478 1477 1475 1476 1476 1472 1460 1453 1459 1460 1449 1436 1412 1425 1427 1423 1411 1411 1406 1397 1397 1393 1392 1390 1390 1390
1558 1556 1553 1551 1550 1546 1545 1545 1543 1539 1537 1535 1533 1529 1525 1522 1521 1520 1515 1512 1510 1508 1502 1493 1486 1480 1478 1475 1472 1470 1467 1464 1462 1457 1445 1444 1447 1448 1438 1428 1416 1421 1419 1413 1407 1402 1393 1389 1384 1378 1378 1378 1378 1378
1552 1551 1550 1547 1543 1542 1542 1541 1538 1534 1533 1530 1526 1522 1518 1515 1511 1507 1505 1504 1503 1503 1502 1496 1487 1481 1477 1472 1467 1464 1457 1453 1446 1442 1438 1436 1436 1434 1431 1433 1427 1421 1413 1404 1399 1397 1390 1381 1374 1368 1367 1368 1367 1368
1549 1547 1547 1544 1540 1537 1537 1535 1533 1530 1528 1524 1520 1515 1510 1507 1504 1503 1501 1498 1497 1501 1495 1491 1488 1483 1477 1473 1467 1456 1450 1446 1437 1434 1430 1432 1426 1426 1436 1431 1423 1416 1410 1398 1388 1385 1379 1371 1365 1361 1359 1358 1357 1357
1543 1542 1544 1540 1537 1535 1533 1532 1529 1526 1523 1519 1515 1512 1506 1505 1502 1500 1492 1490 1489 1490 1489 1485 1482 1482 1480 1475 1467 1461 1452 1446 1440 1426 1424 1421 1423 1432 1429 1424 1416 1408 1401 1394 1383 1368 1368 1361 1358 1353 1350 1351 1350 1349
1539 1538 1539 1536 1534 1533 1529 1528 1525 1523 1520 1517 1514 1509 1505 1501 1497 1494 1492 1491 1490 1489 1485 1483 1479 1482 1478 1475 1471 1463 1457 1445 1436 1425 1422 1417 1429 1429 1425 1417 1409 1401 1392 1383 1375 1365 1358 1353 1348 1345 1340 1344 1343 1343
1537 1536 1535 1532 1531 1529 1526 1524 1522 1520 1518 1515 1514 1507 1501 1498 1496 1497 1498 1493 1492 1491 1484 1482 1482 1480 1475 1471 1468 1460 1454 1443 1434 1425 1420 1428 1430 1430 1421 1411 1401 1392 1381 1368 1357 1346 1339 1337 1337 1337 1335 1337 1337 1337
1534 1533 1530 1528 1528 1526 1523 1521 1519 1516 1513 1511 1508 1505 1502 1500 1504 1501 1509 1498 1496 1485 1483 1481 1481 1479 1474 1471 1467 1461 1453 1441 1433 1433 1436 1442 1439 1429 1419 1407 1395 1385 1372 1356 1338 1318 1310 1320 1326 1329 1330 1333 1334 1334
1530 1529 1526 1526 1525 1522 1519 1517 1514 1512 1510 1508 1507 1506 1504 1507 1502 1496 1494 1490 1486 1483 1482 1480 1479 1478 1472 1470 1463 1458 1446 1441 1446 1454 1453 1446 1440 1430 1419 1409 1396 1383 1371 1355 1336 1318 1311 1318 1323 1328 1331 1334 1334 1334
1526 1525 1524 1523 1521 1518 1515 1513 1511 1509 1508 1507 1505 1505 1501 1493 1491 1489 1488 1485 1483 1481 1480 1479 1476 1476 1471 1467 1459 1453 1451 1456 1456 1460 1457 1452 1444 1434 1422 1411 1401 1389 1377 1363 1351 1337 1332 1331 1330 1332 1336 1338 1340 1342
1522 1521 1521 1519 1517 1514 1512 1509 1506 1506 1504 1503 1500 1497 1494 1493 1487 1486 1485 1483 1481 1479 1478 1477 1476 1473 1466 1461 1455 1459 1461 1464 1466 1466 1461 1454 1445 1436 1427 1417 1407 1397 1387 1377 1367 1359 1352 1348 1346 1346 1344 1346 1349 1352
1519 1518 1517 1515 1513 1510 1507 1506 1504 1503 1501 1499 1495 1494 1493 1490 1488 1486 1484 1481 1480 1479 1477 1475 1474 1466 1464 1461 1464 1467 1472 1473 1470 1466 1462 1456 1449 1441 1432 1424 1415 1407 1398 1389 1381 1374 1369 1368 1366 1363 1359 1364 1365 1366
1517 1516 1513 1511 1509 1506 1504 1502 1502 1500 1497 1494 1494 1492 1491 1489 1487 1484 1481 1479 1479 1477 1476 1474 1473 1473 1473 1472 1474 1478 1476 1472 1468 1467 1462 1457 1451 1445 1437 1431 1423 1416 1409 1403 1396 1392 1387 1383 1381 1380 1380 1381 1380 1381
1514 1511 1510 1508 1506 1505 1503 1501 1501 1497 1493 1492 1491 1490 1489 1487 1486 1483 1480 1478 1477 1477 1477 1477 1479 1481 1481 1480 1480 1477 1475 1473 1469 1467 1464 1459 1454 1448 1443 1437 1431 1424 1418 1413 1408 1404 1403 1400 1399 1397 1395 1394 1392 1394
1510 1508 1507 1504 1504 1503 1501 1500 1498 1495 1492 1491 1490 1489 1487 1486 1485 1483 1480 1479 1478 1478 1480 1483 1485 1485 1484 1481 1479 1477 1475 1473 1469 1467 1465 1461 1457 1452 1446 1441 1437 1433 1428 1424 1420 1417 1413 1411 1409 1408 1406 1405 1405 1407
1507 1505 1503 1502 1501 1501 1499 1496 1494 1493 1491 1489 1489 1488 1487 1486 1485 1484 1482 1481 1481 1484 1485 1485 1485 1483 1482 1480 1478 1477 1475 1473 1471 1470 1468 1464 1460 1456 1451 1447 1443 1438 1434 1431 1428 1427 1424 1422 1421 1420 1418 1417 1417 1416
1504 1502 1500 1498 1498 1497 1495 1493 1493 1492 1491 1488 1488 1486 1486 1486 1485 1485 1484 1483 1486 1487 1486 1485 1484 1483 1482 1480 1479 1477 1476 1475 1473 1471 1470 1467 1462 1458 1454 1451 1447 1443 1440 1438 1436 1433 1431 1431 1430 1428 1425 1422 1420 1419
1501 1500 1498 1497 1496 1493 1493 1491 1491 1489 1488 1487 1486 1486 1486 1486 1486 1486 1486 1487 1488 1487 1486 1485 1485 1484 1483 1482 1480 1479 1478 1476 1474 1472 1470 1468 1466 1463 1460 1456 1453 1450 1447 1445 1442 1440 1437 1435 1433 1431 1430 1429 1427 1426
1498 1497 1495 1493 1492 1491 1491 1489 1488 1488 1487 1487 1487 1488 1487 1486 1487 1486 1487 1487 1488 1487 1486 1485 1485 1485 1484 1483 1481 1480 1479 1477 1476 1474 1472 1470 1468 1465 1463 1460 1457 1454 1452 1450 1447 1444 1442 1439 1438 1435 1433 1432 1431 1430
1497 1495 1494 1490 1490 1490 1489 1488 1487 1487 1490 1490 1490 1488 1486 1486 1487 1488 1486 1487 1487 1487 1486 1486 1485 1485 1484 1483 1482 1481 1480 1479 1477 1476 1474 1472 1470 1468 1466 1463 1460 1457 1455 1453 1450 1448 1445 1444 1442 1440 1439 1438 1437 1436
1495 1490 1490 1487 1487 1489 1488 1489 1490 1489 1489 1490 1488 1486 1486 1486 1490 1489 1486 1486 1486 1486 1486 1486 1485 1485 1484 1483 1483 1482 1481 1480 1478 1477 1475 1473 1471 1469 1466 1464 1461 1460 1457 1454 1452 1450 1448 1447 1445 1444 1443 1441 1440 1440
1491 1486 1485 1486 1486 1486 1487 1487 1487 1487 1490 1490 1487 1487 1488 1491 1490 1485 1485 1485 1486 1486 1486 1486 1486 1485 1485 1484 1483 1482 1481 1480 1479 1478 1476 1474 1472 1470 1468 1466 1463 1462 1459 1457 1456 1453 1451 1450 1448 1447 1446 1445 1443 1442
1484 1483 1484 1484 1484 1484 1484 1485 1486 1487 1485 1485 1486 1489 1489 1486 1485 1484 1484 1485 1485 1486 1486 1486 1486 1485 1485 1484 1484 1483 1482 1480 1479 1477 1476 1475 1473 1471 1469 1467 1465 1463 1461 1459 1457 1455 1453 1452 1451 1449 1448 1447 1446 1444
1480 1480 1482 1482 1483 1483 1482 1482 1482 1482 1483 1483 1484 1483 1482 1482 1482 1482 1483 1484 1485 1486 1486 1486 1486 1485 1485 1484 1483 1482 1481 1480 1480 1477 1476 1474 1473 1472 1470 1468 1466 1464 1462 1460 1458 1456 1454 1453 1453 1451 1450 1449 1448 1446
1477 1479 1480 1480 1480 1480 1480 1480 1481 1481 1481 1481 1482 1481 1481 1480 1480 1481 1482 1483 1484 1485 1486 1486 1486 1485 1484 1484 1482 1482 1480 1479 1477 1477 1474 1473 1472 1471 1469 1467 1465 1464 1462 1460 1458 1457 1456 1455 1454 1453 1452 1451 1450 1448
1476 1478 1478 1478 1478 1479 1479 1480 1480 1480 1480 1480 1480 1480 1480 1479 1479 1480 1481 1482 1483 1484 1484 1484 1484 1484 1483 1482 1481 1481 1480 1479 1477 1475 1474 1473 1471 1469 1468 1466 1464 1463 1461 1460 1459 1458 1457 1456 1455 1454 1454 1452 1451 1449
1475 1476 1477 1478 1478 1479 1480 1480 1481 1481 1480 1480 1479 1479 1479 1479 1479 1480 1480 1481 1482 1482 1483 1483 1483 1482 1482 1481 1480 1479 1478 1477 1475 1474 1473 1472 1470 1468 1467 1465 1463 1461 1460 1460 1459 1458 1458 1457 1456 1456 1455 1454 1452 1451
1475 1476 1476 1477 1478 1479 1480 1481 1480 1480 1479 1479 1478 1478 1479 1479 1478 1478 1478 1478 1480 1480 1481 1481 1481 1480 1479 1479 1478 1477 1476 1475 1474 1473 1471 1470 1468 1466 1465 1463 1462 1461 1460 1460 1459 1459 1459 1458 1458 1457 1456 1455 1454 1452